map of BJX home
Great Circle Mapper logo
BJX - Airport
Location
City:  León, Guanajuato, México
Near (Alt.):Silao, Guanajuato
Name:Guanajuato International Airport
Old (Alt.):Del Bajío International Airport
ICAO:MMLO
IATA:BJX

Details
Type:Airport (Aerodrome, Airfield)
Use:Public/Civil, International (customs port of entry)
Latitude:20°59'36"N (20.993464)
Longitude:101°28'51"W (-101.480846)
Datum:WGS 1984
Elevation:5956 ft (1815 m)
Variation:5.72°E (WMM2015 magnetic declination)
-0.11° annual change
Runways:1
Longest:11480 × 148 ft (3499 × 45 m), paved

Time
Time Zone:UTC-6 (DST-5)
Local Time:

Weather
METAR:MMLO 300550Z 00000KT 8SM SCT200 17/11 A3027 RMK SLP109 52003 967 8/003

Related Locations
Nearby:
Farthest:RRG: 11461 mi / 18445 km
Plaine Corail, Rodrigues Island, MU

Find:

   beyond  
but within

Other Information
Maps:
NOTAMs:
Links:
Sources:

  
flag of México
flag of Guanajuato
  

Sectional Chart

Flight Planning
at skyvector.com

Satellite Image

Google Maps Satellite view

 

Copyright © 2004-2016 Karl L. Swartz. All rights reserved.
The Great Circle Mapper name and logo are trademarks of the Great Circle Mapper.
All other trademarks mentioned herein belong to their respective owners.
Please see credits for attibutions and further copyright information.

  Follow gcmap on Facebook Follow gcmap on Twitter Follow gcmap on Google+ GCmap on LinkedIn

hCard Microformat

Geo Microformat